sat.trackr.live / text

‹ back to catalog

STARLINK-31071

NORAD 58602 · 2023-200P

PAYLOAD ACTIVE UNKNOWN

§ Identity

Operator
Country
US
Launch date
2023-12-19
Launch site
AFETR
Launch vehicle
Mass (kg)
RCS (m²)

Purposes: comms

External: N2YO · Heavens-Above · Gunter

§ Orbital elements

Epoch: 2026-05-25T03:32:46.893408Z

Period
94.27 min
Inclination
43.0027°
Eccentricity
0.0001355
Mean motion
15.27571110 rev/d
Perigee alt
482.1 km
Apogee alt
484.0 km
Semi-major
6,861.2 km
B*
1.3241e-5
RAAN
296.8812°
Arg perigee
257.5862°
Mean anomaly
102.4838°
Rev number
13,718

§ Raw data

STARLINK-310711 58602U 23200P   26145.14776497  .00000102  00000+0  13241-4 0  99982 58602  43.0027 296.8812 0001355 257.5862 102.4838 15.27571110137180

JSON: /api/v1/satellites/58602 · /tle

For live sub-satellite position, see the globe view (requires WebGL).

§ Visibility from observer

Set your observer location to see the next 7 days of passes ≥ 10°. The values pass through the URL so the page stays shareable.

No JS? Fill the form by hand. The geolocation button needs JavaScript.